Location: Newark
(23.1300°N, 73.6109°E)
Time: 15:57:14
(UTC+00:00)

AO-7 - Pass Details

Date: 10 July 2020
Orbit: 1440 x 1458 km, 101.8° (Epoch: 05 August)

Event Time Altitude Azimuth Distance (km) Brightness Sun altitude
Rises 21:03:18 0° 46° (NE) 4,562 ? -37.2°
Reaches altitude 10° 21:08:17 10° 72° (ENE) 3,580 ? -36.5°
Maximum altitude 21:11:48 13° 97° (E) 3,331 ? -36.1°
Drops below altitude 10° 21:15:18 10° 123° (ESE) 3,573 ? -35.6°
Enters shadow 21:17:58 - 138° (SE) 4,034 ? -35.3°
